Regional Weather Roundup
Issued by NWS

Home | Current Version | Previous Version | Graphics & Text | Print | Product List | Glossary On
Versions: 1 2 3 4 5 6 7 8 9 10 11 12 13 14 15 16 17 18 19 20 21 22 23 24 25 26 27 28 29 30 31 32 33 34 35 36 37 38 39 40 41 42 43 44 45 46 47 48 49 50
000
ASUS45 KTFX 210004
RWRMT
MONTANA HOURLY WEATHER ROUNDUP
NATIONAL WEATHER SERVICE GREAT FALLS MT
504 PM MST SAT DEC 20 2014

NOTE: "FAIR" INDICATES FEW OR NO CLOUDS BELOW 12000 FEET WITH NO
SIGNIFICANT WEATHER AND/OR OBSTRUCTIONS TO VISIBILITY.

* THESE STATIONS ARE NOT UNDER NWS QUALITY CONTROL. THEY DO NOT
   REPORT WEATHER SUCH AS PRECIPITATION OR FOG.

MTZ001>007-043-210100-
WEST OF THE DIVIDE
CITY           SKY/WX    TMP DP  RH WIND       PRES   REMARKS
KALISPELL      LGT SNOW  34  30  85 CALM      29.74F
MISSOULA       CLOUDY    30  30 100 W3        29.78F
BUTTE          CLOUDY    32  25  75 NW6       29.79F WCI  26
MULLAN PASS    LGT SNOW  30  27  89 S8        29.67F VSB 1/2  WCI  22
* ESSEX        N/A       32  30  92 W1         N/A
* LINCOLN      N/A       31  26  82 NW3        N/A
* LOOKOUT PASS N/A       30  30 100 SE4        N/A
* POLSON       N/A       33  32  96 E1         N/A
* RONAN APT    CLOUDY    34  32  92 N/A        N/A
* SEELEY LAKE  N/A       28  26  92 N/A        N/A
* THOMP F APT  CLOUDY    28  27  96 S5         N/A   WCI  22
$$

MTZ008-052>055-210100-
SOUTHWEST MONTANA
CITY           SKY/WX    TMP DP  RH WIND       PRES   REMARKS
BOZEMAN        CLOUDY    34  25  70 SW3       29.83S
DILLON         CLOUDY    36  27  70 S9        29.82F WCI  29
* W YELLOWSTON PTCLDY    29  26  89 SW4G12     N/A
* THREE FORKS  PTCLDY    37  37 100 N/A        N/A
* BOULDER HILL N/A       29  20  69 S10        N/A   WCI  20
* MONIDA PASS  N/A       26  26 100 SE13G19    N/A   WCI  15
* RAYNOLDS PAS N/A       29  15  56 SE14       N/A   WCI  18
* WHITEHALL    N/A       38  21  50 S5G15      N/A   WCI  34
* WISE RIVER   N/A       30  25  82 SE2        N/A
$$

MTZ009>010-012-014-046-048-049-054-210100-
EAST SLOPES AND CENTRAL MONTANA
CITY           SKY/WX    TMP DP  RH WIND       PRES   REMARKS
CUT BANK       PTCLDY    32  21  64 SW7       29.66F WCI  25
GREAT FALLS    MOCLDY    37  25  62 SW9       29.72F WCI  30
HELENA         CLOUDY    36  27  70 CALM      29.76F
* DEARBORN     N/A       42  25  51 S9         N/A
* EAST GLACIER N/A       32  25  75 W19G26     N/A   WCI  20
* MONARCH      N/A       34  16  48 SW17       N/A   WCI  23
* PENDROY      N/A       34  21  59 W8         N/A   WCI  27
* ROGERS PASS  N/A       30  24  78 SE4G12     N/A
* SWEET GRASS  N/A       33  23  67 S12        N/A   WCI  24
$$

MTZ011-013-016-021-035-040-045-047-050-051-210100-
NORTH CENTRAL MONTANA
CITY           SKY/WX    TMP DP  RH WIND       PRES   REMARKS
HAVRE          CLEAR     34  25  70 S10       29.71F WCI  26
LEWISTOWN      PTCLDY    36  25  64 SW14      29.75F WCI  27
* N BAR RANCH  CLEAR     32  16  52 VRB5      29.76F WCI  27
* CHESTER      N/A       40  21  47 SW3        N/A
* DENTON       N/A       36  24  62 SW8        N/A   WCI  30
* GEYSER       N/A       36  19  50 NW3G9      N/A
* JUDITH GAP   N/A       36  23  59 SW17G23    N/A   WCI  26
* LOMA         N/A       40  24  53 SW6        N/A   WCI  36
$$

MTZ017>020-022>027-061-062-210100-
NORTHEAST MONTANA
CITY           SKY/WX    TMP DP  RH WIND       PRES   REMARKS
GLASGOW        PTCLDY    34  25  70 SW8       29.75F WCI  27
GLENDIVE       PTCLDY    36  23  59 W3        29.81F
JORDAN         PTCLDY    32  21  64 S6        29.78F WCI  26
SIDNEY         MOCLDY    36  27  70 SW6       29.81R WCI  31
WOLF POINT     PTCLDY    37  25  62 SW6       29.78S WCI  32
* BEAVER HILL  N/A       37  26  64 SW11       N/A   WCI  29
* CIRCLE       N/A       37  27  67 N/A        N/A
* LINDSAY DVD  N/A       35  23  62 SW10       N/A   WCI  27
* SACO         N/A       38  23  55 SW4        N/A
$$

MTZ028>042-056>058-210100-
SOUTHCENTRAL AND SOUTHEAST MONTANA
CITY           SKY/WX    TMP DP  RH WIND       PRES   REMARKS
BAKER          CLEAR     34  25  70 SW8       29.82F WCI  27
BILLINGS       MOCLDY    36  25  64 S9        29.82F WCI  29
LIVINGSTON     PTCLDY    43  23  45 SW22G31   29.77F
MILES CITY     CLEAR     39  23  53 S6        29.81F WCI  35
* LAUREL APT   MOCLDY    36  19  50 N/A        N/A
* ROUNDUP APT  CLOUDY    39  21  48 N/A        N/A
* ALZADA       N/A       36  23  59 E1         N/A
* HYSHAM       N/A       38  21  50 W3G8       N/A
* LAME DEER    N/A       36  24  62 SW7        N/A   WCI  30
* REED POINT   N/A       38  26  62 S1         N/A
* ROSCOE HILL  N/A       37  10  33 E3         N/A
$$

REGIONAL REPORTS...DAKOTAS
CITY           SKY/WX    TMP DP  RH WIND       PRES   REMARKS
WILLISTON      PTCLDY    34  28  79 W7        29.76F WCI  28
DICKINSON      PTCLDY    34  25  70 W7        29.78F WCI  28
BEACH          CLEAR     36  27  70 SW8       29.81F WCI  30
CROSBY         CLEAR     34  34 100 SW12      29.74S WCI  25
WATFORD CITY   PTCLDY    36  28  73 SW6       29.76S WCI  31
BISMARCK       CLEAR     23  21  92 SE6       29.83S WCI  16
GRAND FORKS    FOG       28  27  96 S15G23    29.92F WCI  16
FARGO          FOG       32  28  85 S15G22    29.95F WCI  22
BUFFALO SD     PTCLDY    36  25  64 SW13      29.78F WCI  27
RAPID CITY     MOCLDY    36  27  70 E3        29.87F
$$

REGIONAL REPORTS...WYOMING/IDAHO/WASHINGTON
CITY           SKY/WX    TMP DP  RH WIND       PRES   REMARKS
GILLETTE       PTCLDY    30  25  82 S8        29.84F WCI  22
SHERIDAN       CLOUDY    36  27  70 E3        29.82F
CODY           MOCLDY    34  21  59 SE10      29.83F WCI  26
YELLOWSTONE LA PTCLDY    27  19  72 W8        29.91R WCI  19
SALMON         CLOUDY    34  28  79 CALM      29.85F
MULLAN PASS    LGT SNOW  30  27  89 S8        29.67S VSB 1/2  WCI  22
SAND POINT     CLOUDY    36  36 100 NE3       29.73F
SPOKANE        LGT RAIN  39  39 100 SE10      29.67F WCI  32
$$

REGIONAL REPORTS...SASKATCHEWAN
CITY           SKY/WX    TMP DP  RH WIND       PRES   REMARKS
SWIFT CURRENT  CLEAR     28  23  81 S26G112   29.66F WCI  13

$$




USA.gov is the U.S. government's official web portal to all federal, state and local government web resources and services.